Location: Boucaut
(50.6167°N, 3.6500°E)
Time: 00:02:28
(UTC+00:00)

Daily predictions for brighter satellites

Satellite Brightness Start Highest point End
(mag) Time Altitude Azimuth Time Altitude Azimuth Time Altitude Azimuth
SL-16 R/B 4.1 03:19:10 25° ENE 03:19:10 25° ENE 03:22:49 10° E
Cosmos 2082 Rocket 4.0 03:23:08 27° E 03:23:08 27° E 03:26:41 10° NE
USA 234 4.1 03:24:08 10° ENE 03:28:36 45° NE 03:28:36 45° NE
NOSS 3-1 (C) 3.9 03:52:30 77° NE 03:52:33 77° NE 04:01:09 10° SE
COSMOS 2455 3.6 04:07:00 43° SSE 04:07:00 43° SSE 04:10:57 10° SSE
Cosmos 2360 Rocket 3.7 04:09:26 27° NNE 04:11:04 31° NE 04:16:02 10° ESE
Cosmos 2333 Rocket 3.2 04:11:00 38° NNE 04:12:14 43° NE 04:17:42 10° ESE
ATLAS 3B R/B 4.1 04:14:24 29° NNW 04:16:25 33° NNE 04:23:20 10° ENE
ACS3 Solar Sail 4.0 04:12:22 10° N 04:12:40 11° N 04:12:40 11° N
Nadezhda 4 Rocket 4.4 04:12:35 10° S 04:18:46 61° E 04:24:57 10° NNE
NOSS 3-4 (A) 4.3 04:23:03 34° N 04:23:03 34° N 04:27:27 10° NE
NOSS 3-4 (C) 4.3 04:23:12 34° N 04:23:12 34° N 04:27:38 10° NE
Cosmos 1898 Rocket 4.4 04:29:27 37° S 04:29:27 37° S 04:32:37 10° SSE
Cosmos 2219 Rocket 3.9 04:25:49 20° N 04:28:29 28° NE 04:33:17 10° E
ADEOS Rocket 4.5 04:22:50 10° N 04:27:21 31° NNW 04:27:21 31° NNW
COSMO-SKYMED 1 3.6 04:28:19 10° SE 04:32:10 40° ENE 04:32:39 38° NE
IRS-1D 4.4 04:28:31 10° NNE 04:33:22 47° E 04:38:16 10° S
Cosmos 2322 Rocket 3.1 04:32:25 31° N 04:34:43 46° NE 04:40:10 10° SE
Cosmos 1937 Rocket 3.5 04:49:25 59° SSW 04:49:25 59° SSW 04:53:48 10° S
Cosmos 858 Rocket 4.3 04:49:23 70° NNW 04:50:00 87° WSW 04:55:12 10° SSE
USA 59 Rocket 1.8 04:54:18 20° S 04:54:18 20° S 04:56:18 10° S
Cosmos 2237 4.3 04:53:25 54° SW 04:53:25 54° SW 04:58:37 10° S
Cosmos 1833 Rocket 4.3 04:55:09 20° N 04:55:09 20° N 04:57:44 10° NNE
Meteor 2-3 Rocket 3.9 04:48:48 10° S 04:54:29 73° E 05:00:10 10° NNE
Cosmos 2058 Rocket 3.6 04:54:41 24° N 04:57:10 58° ENE 05:01:30 10° SSE
COSMOS 2406 3.2 04:55:16 15° SSW 05:00:03 84° ESE 05:05:46 10° NNE
SKYMED 2 3.4 04:56:08 10° S 05:00:15 73° SW 05:00:15 73° SW
NOSS 3-1 (A) 3.9 04:57:15 36° NW 05:00:37 89° NE 05:09:21 10° SE
SL-16 R/B 2.1 05:01:03 46° NW 05:02:47 77° WSW 05:08:26 10° SSE
Cosmos 2082 Rocket 2.2 05:05:01 52° W 05:05:40 55° NW 05:11:12 10° NNE
CZ-4 R/B 3.8 05:02:14 10° NNE 05:06:54 79° ESE 05:11:31 10° SSW
ATLAS 5 CENTAUR R/B 3.5 05:10:38 13° NNE 05:10:38 13° NNE 05:11:18 10° NNE
SeaSat 1 3.8 05:04:52 10° NNE 05:07:30 24° NNW 05:07:30 24° NNW
BREEZE-M DEB (TANK) 3.4 05:12:01 51° SE 05:12:01 51° SE 05:14:06 10° E
Okean 1 3.4 05:11:24 39° NNE 05:12:30 61° ENE 05:16:01 10° SSE
USA 234 3.6 05:06:53 10° ENE 05:13:11 51° N 05:15:57 32° NW
CZ-2C R/B 4.2 05:11:41 10° N 05:13:16 18° NNW 05:13:16 18° NNW
Helios 1A Rocket 2.6 05:13:05 10° SSE 05:15:55 61° S 05:15:55 61° S
NOAA 12 4.0 05:11:56 10° NNE 05:17:16 85° WNW 05:22:31 10° SSW
Cosmos 2285 Rocket 4.2 05:17:03 14° NNW 05:22:42 73° ENE 05:29:06 10° SSE
BREEZE-M DEB (TANK) 2.4 05:23:25 69° SSW 05:23:34 71° S 05:27:51 10° E
BREEZE-M DEB (TANK) 3.0 05:24:36 34° SW 05:25:20 39° S 05:30:40 10° ESE
Cosmos 2278 3.7 05:24:16 32° NW 05:26:48 60° WSW 05:32:20 10° S
SL-4 R/B 1.2 05:28:33 72° SW 05:28:42 74° SSW 05:31:53 10° ESE
FengYun 1-2 T 4.4 05:24:15 10° N 05:29:39 48° WNW 05:35:03 10° SW
NOSS 8 (A) 3.8 05:33:11 75° NW 05:33:24 88° ENE 05:36:34 10° SE
Cosmos 2026 Rocket 3.8 05:28:26 10° SSW 05:34:27 70° WNW 05:40:35 10° N
Cosmos 2221 3.7 05:30:53 10° N 05:34:48 39° ENE 05:38:41 10° SE
SL-16 R/B 4.5 05:39:51 10° N 05:41:46 12° NNE 05:43:41 10° NE
Cosmos 405 Rocket 3.0 05:40:05 10° S 05:43:16 55° E 05:46:30 10° NNE
Cosmos 841 Rocket 3.9 05:40:31 22° WSW 05:43:22 39° NW 05:48:18 10° NNE
Cosmos 1707 4.3 05:42:42 10° NNE 05:45:25 26° ENE 05:48:08 10° SE
IRIDIUM 106 4.4 05:43:06 10° S 05:48:19 79° E 05:53:34 10° N
COSMOS 2455 4.3 05:50:11 17° WSW 05:50:11 17° WSW 05:53:39 10° SW
Cosmos 2360 Rocket 2.2 05:51:12 18° NW 05:55:26 60° WSW 06:00:56 10° SSE
Cosmos 1626 Rocket 3.5 05:52:09 10° S 05:56:34 89° ESE 06:01:00 10° N
Cosmos 2333 Rocket 2.7 05:53:03 20° NW 05:56:34 42° WSW 06:01:55 10° S
Cosmos 1553 Rocket 4.0 05:50:55 10° NNW 05:57:18 74° W 06:03:40 10° S
SMAP 3.9 05:55:08 10° NNE 05:59:43 55° E 06:04:17 10° S
Cosmos 1892 Rocket 4.3 05:57:31 10° SW 06:01:25 31° WNW 06:05:22 10° N
Cosmos 1092 Rocket 4.1 05:55:19 10° SSW 06:01:26 53° WNW 06:07:31 10° N
Cosmos-2242 3.6 06:00:27 18° NW 06:02:59 34° W 06:06:47 10° SSW
Cosmos 2237 Rocket 3.9 06:01:13 10° NNW 06:05:53 26° NE 06:10:32 10° E
Cosmos 1125 Rocket 3.6 06:02:06 10° NNW 06:07:25 78° ENE 06:12:37 10° SSE
COSMO-SKYMED 1 3.6 06:04:16 10° SSW 06:07:37 24° W 06:08:59 20° WNW
ATLAS 3B R/B 3.4 06:01:38 13° NW 06:08:47 60° NE 06:16:17 10° ESE
IRS-1D 4.2 06:08:01 10° N 06:12:18 29° WNW 06:16:38 10° WSW
Cosmos 2219 Rocket 2.2 06:07:31 11° NNW 06:12:57 72° WSW 06:18:33 10° SSE
Meteor 1-19 Rocket 4.4 06:09:26 10° NNW 06:15:14 83° ENE 06:21:11 10° SSE
Cosmos 2322 Rocket 2.8 06:14:15 14° NW 06:18:40 37° WSW 06:23:49 10° S
BREEZE-M DEB (TANK) 4.2 06:01:15 10° W 06:20:25 84° S 06:24:54 10° E
Okean 1-7 Rocket 4.0 06:21:53 10° S 06:26:22 69° E 06:30:50 10° NNE
Cosmos 1812 Rocket 3.5 06:22:43 10° NNW 06:27:00 65° W 06:31:17 10° S
IGS 5A 3.7 06:23:21 10° N 06:27:10 43° WNW 06:30:58 10° SW
Cosmos 2322 4.0 06:22:24 10° NNW 06:28:05 70° ENE 06:33:43 10° SE
Cosmos 1484 Rocket 3.2 06:25:21 10° N 06:28:23 30° WNW 06:31:23 10° SW
SJ-12 3.9 06:28:11 10° NNE 06:32:02 80° ESE 06:35:50 10° S
Cosmos 2266 Rocket 4.1 06:26:23 10° S 06:32:47 89° WNW 06:39:09 10° N
Cosmos 1437 Rocket 2.4 06:29:45 10° NNW 06:33:11 64° W 06:36:37 10° S
Cosmos 192 4.5 06:28:37 10° NNW 06:33:26 57° WSW 06:38:13 10° S
Cosmos 1602 Rocket 3.5 06:30:40 10° SSW 06:35:05 70° WNW 06:39:32 10° N
Cosmos 1417 Rocket 4.5 06:29:06 10° NNW 06:35:11 68° W 06:41:16 10° S
ATLAS 2AS CENTAUR R/B 3.2 06:29:06 10° SSW 06:36:05 68° SE 06:42:53 10° NE
SL-08 ROCKET BODY 4.5 06:33:53 10° SSW 06:39:34 52° WNW 06:45:17 10° N
Cosmos 1743 2.7 06:37:32 10° SSW 06:40:37 39° WNW 06:43:43 10° N
ARIANE 5 R/B 2.7 06:35:28 10° NNE 06:40:43 86° ESE 06:45:58 10° SSW
COSMOS 2406 4.2 06:40:26 10° W 06:45:02 25° NW 06:49:41 10° NNE
SL-16 R/B 3.9 06:43:05 10° WNW 06:45:54 14° W 06:48:43 10° SW
AQUARIUS 4.1 06:43:38 10° NNE 06:48:05 88° WNW 06:52:30 10° SSW
COSMOS 2428 2.8 06:44:39 10° NNW 06:50:24 86° ENE 06:56:06 10° SSE
SKYMED 3 4.4 06:46:44 10° SSE 06:50:44 86° WSW 06:54:46 10° NNW
Cosmos 2082 Rocket 3.7 06:47:33 10° WNW 06:51:02 16° NNW 06:54:33 10° N
SPOT 1/Viking Rocket 4.2 06:47:24 10° NNE 06:52:33 61° ESE 06:57:39 10° S
ATLAS 5 CENTAUR R/B 3.3 06:51:16 10° NNW 06:52:51 12° N 06:54:33 10° NNE
USA 234 3.5 06:49:16 10° ESE 06:55:47 70° NNE 07:02:19 10° WNW
Cosmos 2150 Rocket 4.3 06:51:06 10° NNW 06:56:35 78° ENE 07:02:00 10° SSE
Cosmos 1953 Rocket 4.1 06:54:05 10° S 06:58:21 63° E 07:02:41 10° NNE
MOS 1 Rocket 3.6 06:53:11 10° N 06:58:34 72° WNW 07:03:50 10° SSW
